Location: Fort Wayne
(41.1310°N, 85.1290°W)
Time: 20:34:07
(UTC-04:00)

SR - Visible Passes

Search period start: 28 July 2014 00:00
Search period end: 07 August 2014 00:00
Orbit: 575 x 890 km, 66.7° (Epoch: 27 July)

Date Brightness Start Highest point End Pass type
(mag) Time Alt. Az. Time Alt. Az. Time Alt. Az.
28 Jul ? 22:03:58 10° NNW 22:09:57 76° WSW 22:15:13 13° SSE visible
28 Jul ? 23:50:00 10° W 23:51:07 11° W 23:52:14 10° WSW visible
29 Jul ? 22:59:04 10° WNW 23:03:26 22° WSW 23:07:40 10° SSW visible
30 Jul ? 22:10:04 10° NW 22:15:35 40° WSW 22:20:52 10° S visible
31 Jul ? 21:21:34 10° NNW 21:27:33 74° WSW 21:33:15 10° SSE visible
31 Jul ? 23:08:09 10° W 23:08:41 10° W 23:09:13 10° WSW visible
01 Aug ? 22:16:43 10° WNW 22:21:00 21° WSW 22:25:09 10° SSW visible
02 Aug ? 21:27:40 10° NW 21:33:09 39° WSW 21:38:24 10° S visible
04 Aug ? 21:34:22 10° WNW 21:38:34 20° WSW 21:42:38 10° SSW visible
